Location: Newark
(25.4800°N, 85.7200°E)
Time: 15:11:09
(UTC+00:00)

Transit 2A Rocket - Visible Passes

Search period start: 23 August 2019 00:00
Search period end: 02 September 2019 00:00
Orbit: 590 x 913 km, 66.7° (Epoch: 22 August)

Date Brightness Start Highest point End Pass type
(mag) Time Alt. Az. Time Alt. Az. Time Alt. Az.
23 Aug 8.2 13:54:17 10° W 13:57:41 16° WNW 14:01:00 10° NNW visible
23 Aug 4.6 22:44:14 10° NNW 22:48:36 76° ENE 22:52:51 10° SSE visible
24 Aug 7.6 13:09:58 10° WSW 13:14:59 28° WNW 13:19:45 10° N visible
24 Aug 6.2 22:02:06 10° N 22:06:04 33° ENE 22:09:56 10° SE visible
25 Aug 7.3 21:20:37 10° NNE 21:23:24 16° ENE 21:26:08 10° E visible
25 Aug 5.3 23:02:13 10° NW 23:05:52 27° WSW 23:09:29 10° SSW visible
26 Aug 4.3 22:19:13 10° NNW 22:23:31 62° WSW 22:27:43 10° SSE visible
